Home > Weather > Miami > Past weeks

Flag for U.S.A. Weather for the Past 2 Weeks in Miami, Florida, U.S.A.

Now
60 °F

Passing clouds.


Feels Like: 60 °F
Forecast: 57 / 74 °F
Wind: No wind

Location: Miami International Airport

Current Time: Feb 13, 2016 at 8:23:44 AM

Latest Report: Feb 13, 2016 at 7:53 AM


Visibility: 10 mi

Pressure: 30.24 "Hg

Humidity: 83%

Dew point: 55 °F

Location of MiamiLocation

Historic Weather in Miami — Graph

°F

Miami Temperature Yesterday

Maximum temperature yesterday: 74 °F (at 1:53 PM)
Minimum temperature yesterday: 55 °F (at 2:53 AM)
Average temperature yesterday: 65 °F

High & Low Weather Summary for the Past Weeks

 TemperatureHumidityPressure
High80 °F (Feb 2, 2:53 PM)100% (Feb 2, 3:53 AM)30.35 "Hg (Feb 2, 3:53 AM)
Low50 °F (Feb 8, 4:53 AM)25% (Feb 11, 12:53 PM)29.95 "Hg (Feb 9, 3:53 AM)
Average66 °F70%30.11 "Hg
* Reported Jan 29 6:53 AM — Feb 13 6:53 AM, Miami, Weather by CustomWeather, © 2016

Note: Actual official high and low records may vary slightly from our data, if they occured in-between our weather recording intervals... More about our weather records

Advertising

Miami Weather History for the Previous 24 Hours

 ConditionsComfort  
Time TempWeatherWind HumidityBarometerVisibility
6:53 AM
Sat, Feb 13
53 °FPassing clouds.No wind93%30.23 "Hg10 mi
5:53 AM54 °FClear.No wind90%30.21 "Hg10 mi
4:53 AM54 °FClear.No wind83%30.19 "Hg10 mi
3:53 AM56 °FClear.No wind81%30.19 "Hg10 mi
2:53 AM60 °FClear.5 mph67%30.19 "Hg10 mi
1:53 AM61 °FClear.3 mph60%30.20 "Hg10 mi
12:53 AM61 °FClear.3 mph70%30.21 "Hg10 mi
11:53 PM
Fri, Feb 12
63 °FClear.3 mph73%30.22 "Hg10 mi
10:53 PM64 °FClear.No wind68%30.22 "Hg10 mi
9:53 PM66 °FClear.No wind63%30.23 "Hg10 mi
8:53 PM65 °FPassing clouds.3 mph66%30.23 "Hg10 mi
7:53 PM68 °FPassing clouds.No wind59%30.22 "Hg10 mi
6:53 PM68 °FPassing clouds.5 mph61%30.21 "Hg10 mi
5:53 PM69 °FPassing clouds.7 mph61%30.20 "Hg10 mi
4:53 PM72 °FPassing clouds.9 mph57%30.20 "Hg10 mi
3:53 PM74 °FPassing clouds.7 mph52%30.20 "Hg10 mi
2:53 PM74 °FScattered clouds.No wind50%30.22 "Hg10 mi
1:53 PM74 °FScattered clouds.3 mph52%30.23 "Hg10 mi
12:53 PM73 °FPassing clouds.7 mph51%30.26 "Hg10 mi
11:53 AM72 °FScattered clouds.6 mph53%30.29 "Hg10 mi
10:53 AM71 °FPassing clouds.3 mph55%30.32 "Hg10 mi
9:53 AM68 °FPassing clouds.5 mph55%30.32 "Hg10 mi
8:53 AM64 °FPassing clouds.3 mph54%30.32 "Hg10 mi
Weather by CustomWeather, © 2016

See weather overviewHow to use our weather pages